STARLINK-2648 (48679 NORAD) Tracking and Keplerian Element Data

This shows tracking and keplerian element data for the satellite.

Feedback or suggestion? Click here.




ElementValue
Catalog48679
NameSTARLINK-2648
Epoch Orbit364
Epoch Day214.91667824
Epoch Year2021
RAAN92.4895
Inclination53.0456
Eccentricity0.0001354
Argument of Perigee72.1638
Mean Anonmoly22.6914
Mean Motion15.13359069
Decay Rate-0.00925938
L11 48679U 21044AT 21214.91667824 -.00925938 00000-0 -55486-1 0 9995
L22 48679 53.0456 92.4895 0001354 72.1638 22.6914 15.13359069 3645

Live tracking and technical data element details for STARLINK-2648 (NORAD 48679). STARLINK-2648 can be tracked NOW for your location showing map with azimuth and elevation plus other details from your city location.

Track the satellite on the map from your city or location and see movement details for azimuth, elevation, latitude, longitude, range, height, and movement on the map or in text.







IsCatalogInMostPopularTable: catalog: 48679, numindb: 15
Update: records affected: 1



GetName: 48679 STARLINK-2648

Hit Count: updated at: Wed, 04 Aug 2021 00:40:21 GMT